Location: D�rnast
(49.6426°N, 11.9755°E)
Time: 20:33:26
(UTC+00:00)

ISS - Pass Details

Date: 28 April 2021
Orbit: 418 x 421 km, 51.6° (Epoch: 07 May)

Event Time Altitude Azimuth Distance (km) Brightness Sun altitude
Exits shadow 02:15:30 - 164° (SSE) 1,574 -1.1 -14.2°
Reaches altitude 10° 02:15:56 10° 158° (SSE) 1,498 -1.2 -14.2°
Maximum altitude 02:17:12 12° 135° (SE) 1,398 -1.1 -14.0°
Drops below altitude 10° 02:18:29 10° 113° (ESE) 1,503 -0.6 -13.9°
Sets 02:21:42 0° 80° (E) 2,374 1.1 -13.5°
